Content
SEND FEEDBACK

Daily
Averages
Monthly
Summary
United States of America

GLENBROOK, NEVADA


Home > North America > United States > Nevada
Elevation: 2021 meters     Latitude: 39 05N     Longitude: 119 56W

WEATHER
 
SELECT A DAY
Number of Records: 91,335;   Date Range: 7/14/10 - 7/21/14
 
SHARE

PRINT THIS DATA

[ ← Previous Day ]
WEATHER ALMANAC - 31 JANUARY, 2013
[ Next Day → ]
[ °F ]   °C
Weather ElementAverageHighLow
Temperature3.3 °C13 °C (2:15 pm)-4 °C (6:35 am)
Dewpoint-2.5 °C0 °C (12:55 pm)-5 °C (6:15 am)
Humidity69.7 %93 % (1:55 am)36 % (3:15 pm)
Barometer1027.1 hPa1030.1 hPa (1:35 am)1023.4 hPa (4:35 pm)
Wind Speed3.1 km/h16.7 km/h (2:15 pm)
Weather ElementAverage
Visibility16.1 km
Wind DirectionNE (49.4 °)

Weather ElementTotal
Precipitation---
Heating Degree Days13.8 (Base 18.3)
Averaged from 67 records on 31 January, 2013
WEATHER CONDITIONS BREAKOUT
WIND DIRECTION BREAKOUT
WEATHER BY HOUR - 31 JANUARY, 2013
[ °F ]   °C
Local TimeTemperatureDewpointHumidityBarometerVisibilityWind DirectionWind SpeedGust SpeedPrecipitationEventsConditions
12:35 AM0 °C-3 °C80 %1029.8 hPa16.1 kmNW (310°)7.4 km/hClear
12:55 AM0 °C-3 °C80 %1029.8 hPa16.1 kmNW (310°)7.4 km/hClear
1:15 AM0 °C-3 °C80 %1029.8 hPa16.1 kmCalmClear
1:35 AM0 °C-3 °C80 %1030.1 hPa16.1 kmCalmClear
1:55 AM-2 °C-3 °C93 %1030.1 hPa16.1 kmCalmClear
2:15 AM-2 °C-3 °C93 %1030.1 hPa16.1 kmCalmClear
2:35 AM-3 °C-4 °C93 %1029.8 hPa16.1 kmCalmClear
3:15 AM-2 °C-3 °C93 %1029.5 hPa16.1 kmCalmClear
3:35 AM-3 °C-4 °C93 %1029.1 hPa16.1 kmCalmClear
3:55 AM-3 °C-4 °C93 %1029.1 hPa16.1 kmCalmClear
4:15 AM-3 °C-4 °C93 %1029.1 hPa16.1 kmCalmClear
4:35 AM-3 °C-4 °C93 %1029.1 hPa16.1 kmCalmClear
4:55 AM-3 °C-4 °C93 %1029.1 hPa16.1 kmNW (310°)5.6 km/hClear
5:15 AM-3 °C-4 °C93 %1029.1 hPa16.1 kmCalmClear
5:35 AM-3 °C-4 °C93 %1029.1 hPa16.1 kmCalmClear
5:55 AM-3 °C-4 °C93 %1028.8 hPa16.1 kmCalmClear
6:15 AM-3 °C-5 °C86 %1028.8 hPa16.1 kmCalmClear
6:35 AM-4 °C-5 °C93 %1028.8 hPa16.1 kmCalmClear
6:55 AM-4 °C-5 °C93 %1028.8 hPa16.1 kmCalmClear
7:15 AM-4 °C-5 °C93 %1028.8 hPa16.1 kmCalmClear
7:35 AM-3 °C-4 °C93 %1028.8 hPa16.1 kmCalmClear
7:55 AM-2 °C-4 °C86 %1029.1 hPa16.1 kmCalmClear
8:15 AM-1 °C-3 °C86 %1029.1 hPa16.1 kmCalmClear
8:35 AM0 °C-3 °C80 %1029.1 hPa16.1 kmCalmClear
8:55 AM0 °C-3 °C80 %1029.1 hPa16.1 kmCalmClear
9:15 AM2 °C-3 °C70 %1029.1 hPa16.1 kmCalmClear
9:55 AM3 °C-4 °C60 %1028.8 hPa16.1 kmCalmClear
10:15 AM4 °C-3 °C61 %1028.4 hPa16.1 kmCalmClear
10:35 AM5 °C-3 °C57 %1028.4 hPa16.1 kmSSW (200°)5.6 km/hClear
10:55 AM7 °C-3 °C49 %1028.1 hPa16.1 kmCalmClear
11:15 AM7 °C-3 °C49 %1027.8 hPa16.1 kmCalmClear
11:35 AM8 °C-3 °C46 %1027.4 hPa16.1 kmCalmClear
11:55 AM8 °C-2 °C50 %1027.1 hPa16.1 kmCalmClear
12:15 PM9 °C-2 °C46 %1026.8 hPa16.1 kmCalmClear
12:35 PM10 °C-1 °C47 %1026.1 hPa16.1 kmENE (70°)7.4 km/hClear
12:55 PM12 °C0 °C44 %1025.7 hPa16.1 kmEast (80°)13 km/hClear
1:15 PM12 °C0 °C44 %1025.4 hPa16.1 kmEast (90°)14.8 km/hClear
1:55 PM12 °C0 °C44 %1024.7 hPa16.1 kmENE (70°)14.8 km/hClear
2:15 PM13 °C0 °C41 %1024.7 hPa16.1 kmEast (80°)16.7 km/hClear
2:35 PM13 °C0 °C41 %1024.4 hPa16.1 kmEast (90°)9.3 km/hClear
2:55 PM13 °C-1 °C38 %1024 hPa16.1 kmENE (60°)5.6 km/hClear
3:15 PM13 °C-2 °C36 %1023.7 hPa16.1 kmEast (100°)5.6 km/hClear
3:35 PM13 °C-1 °C38 %1023.7 hPa16.1 kmEast (80°)7.4 km/hClear
3:55 PM13 °C0 °C41 %1023.7 hPa16.1 kmEast (90°)9.3 km/hClear
4:15 PM13 °C0 °C41 %1023.7 hPa16.1 kmEast (90°)9.3 km/hClear
4:35 PM13 °C0 °C41 %1023.4 hPa16.1 kmEast (90°)7.4 km/hClear
4:55 PM10 °C0 °C50 %1023.7 hPa16.1 kmEast (80°)9.3 km/hClear
5:15 PM9 °C0 °C54 %1024 hPa16.1 kmNE (50°)9.3 km/hClear
5:35 PM9 °C0 °C54 %1024 hPa16.1 kmNE (40°)13 km/hClear
6:15 PM8 °C-2 °C50 %1024.7 hPa16.1 kmCalmClear
6:35 PM6 °C-2 °C57 %1024.7 hPa16.1 kmWNW (300°)5.6 km/hClear
6:55 PM5 °C-2 °C61 %1025.1 hPa16.1 kmCalmClear
7:15 PM5 °C-2 °C61 %1025.1 hPa16.1 kmCalmClear
7:35 PM3 °C-2 °C70 %1025.1 hPa16.1 kmCalmClear
7:55 PM3 °C-2 °C70 %1025.1 hPa16.1 kmCalmClear
8:15 PM3 °C-2 °C70 %1025.4 hPa16.1 kmCalmClear
8:35 PM3 °C-2 °C70 %1025.4 hPa16.1 kmNNE (30°)5.6 km/hClear
8:55 PM3 °C-2 °C70 %1025.4 hPa16.1 kmCalmClear
9:15 PM1 °C-2 °C81 %1025.7 hPa16.1 kmCalmClear
9:35 PM1 °C-2 °C81 %1025.7 hPa16.1 kmNNW (340°)7.4 km/hClear
9:55 PM1 °C-2 °C81 %1025.4 hPa16.1 kmNorth (350°)9.3 km/hClear
10:15 PM1 °C-2 °C81 %1025.4 hPa16.1 kmCalmClear
10:35 PM0 °C-3 °C80 %1025.4 hPa16.1 kmCalmClear
10:55 PM0 °C-3 °C80 %1025.4 hPa16.1 kmCalmClear
11:15 PM0 °C-3 °C80 %1025.7 hPa16.1 kmCalmClear
11:35 PM0 °C-3 °C80 %1025.7 hPa16.1 kmCalmClear
11:55 PM0 °C-3 °C80 %1025.7 hPa16.1 kmCalmClear
Hourly data recorded from KCXP, located 0 kilometers away from Glenbrook, Nevada







STORIES FROM OUR PARTNERS